カタリナ彗星

346P/Catalina (2017)

English version
Home page
Updated on May 22, 2017

---------------------------------------------------------------------

・ プロフィール

符号 346P/2016 R1
検出日 2016年9月1日
検出光度 20.0等
検出者 K. Sarneczky and P. Szekely (Piszkesteto Station of Konkoly Observatory)

・ 写真集

・ 軌道要素

Epoch 2017 Feb. 16.0 TT = JDT 2457800.5
T 2017 Feb. 15.50815 TT                                 MPCW
q   2.2208862            (2000.0)            P               Q
n   0.10407772     Peri.  335.89995     +0.17132226     -0.91366666
a   4.4760769      Node   102.51469     +0.95410710     +0.06059269
e   0.5038320      Incl.   22.18295     +0.24561824     +0.40192258
P   9.47
From 482 observations 2007 Oct. 6-2017 Apr. 21, mean residual 0".7.
     Nongravitational parameters A1 = +4.80, A2 = +0.6961.

・ 星図

・ 光度変化

        m1 = 9.5 + 5 logΔ + 18.0 log r(t - 100)

---------------------------------------------------------------------

軌道要素はM.P.E.C. 2017-J52に掲載されたものです。
星図はステラナビゲータ Ver.8 (アストロアーツ) で作成したものです。
光度グラフはComet for Windowsで作成したものです。

---------------------------------------------------------------------

Copyright(C) Seiichi Yoshida (comet@aerith.net). All rights reserved.